When you browse on this site, cookies collect data to enhance your experience and personalize the content and advertising you see.
Visit our Privacy Policy to learn more. By continuing to use the site, you agree to this use of cookies and data.

Meteo orario Nashavar

Oggi, 28 Settembre, Lunedi

Tempo Temperatura Precipitazioni Vento Pressione Umidità
00:00 +29°C° 0 mm 1 m/s 727 mm Hg 43%
01:00 +28°C° 0 mm 1 m/s 727 mm Hg 45%
02:00 +27°C° 0 mm 1 m/s 727 mm Hg 47%
03:00 +27°C° 0 mm 1 m/s 727 mm Hg 48%
04:00 +27°C° 0 mm 1 m/s 726 mm Hg 49%
05:00 +26°C° 0 mm 1 m/s 726 mm Hg 51%
06:00 +27°C° 0 mm 1 m/s 727 mm Hg 48%
07:00 +28°C° 0 mm 1 m/s 727 mm Hg 45%
08:00 +29°C° 0 mm 1 m/s 728 mm Hg 42%
09:00 +30°C° 0 mm 1 m/s 728 mm Hg 38%
10:00 +32°C° 0 mm 1 m/s 728 mm Hg 34%
11:00 +33°C° 0 mm 1 m/s 728 mm Hg 30%
12:00 +34°C° 0 mm 1 m/s 728 mm Hg 28%
13:00 +35°C° 0 mm 1 m/s 727 mm Hg 26%
14:00 +36°C° 0 mm 1 m/s 727 mm Hg 24%
15:00 +37°C° 0 mm 2 m/s 727 mm Hg 24%
16:00 +36°C° 0 mm 2 m/s 727 mm Hg 24%
17:00 +36°C° 0 mm 2 m/s 726 mm Hg 23%
18:00 +35°C° 0 mm 2 m/s 726 mm Hg 27%
19:00 +34°C° 0 mm 2 m/s 727 mm Hg 30%
20:00 +31°C° 0 mm 2 m/s 727 mm Hg 33%
21:00 +31°C° 0 mm 1 m/s 727 mm Hg 34%
22:00 +30°C° 0 mm 1 m/s 727 mm Hg 36%
23:00 +29°C° 0 mm 1 m/s 727 mm Hg 37%

Domani, 29 Settembre, Martedi

Tempo Temperatura Precipitazioni Vento Pressione Umidità
00:00 +29°C° 0 mm 1 m/s 726 mm Hg 39%
01:00 +28°C° 0 mm 1 m/s 726 mm Hg 41%
02:00 +26°C° 0 mm 0 m/s 726 mm Hg 42%
03:00 +27°C° 0 mm 1 m/s 726 mm Hg 43%
04:00 +27°C° 0 mm 1 m/s 725 mm Hg 44%
05:00 +27°C° 0 mm 1 m/s 725 mm Hg 44%
06:00 +27°C° 0 mm 1 m/s 726 mm Hg 42%
07:00 +28°C° 0 mm 1 m/s 726 mm Hg 39%
08:00 +29°C° 0 mm 1 m/s 727 mm Hg 36%
09:00 +31°C° 0 mm 1 m/s 727 mm Hg 33%
10:00 +32°C° 0 mm 1 m/s 727 mm Hg 31%
11:00 +34°C° 0 mm 1 m/s 727 mm Hg 28%
12:00 +35°C° 0 mm 2 m/s 726 mm Hg 26%
13:00 +36°C° 0 mm 2 m/s 726 mm Hg 23%
14:00 +37°C° 0 mm 2 m/s 726 mm Hg 21%
15:00 +37°C° 0 mm 3 m/s 725 mm Hg 21%
16:00 +37°C° 0 mm 3 m/s 725 mm Hg 21%
17:00 +37°C° 0 mm 3 m/s 724 mm Hg 20%
18:00 +34°C° 0.2 mm 4 m/s 725 mm Hg 29%
19:00 +32°C° 0.2 mm 4 m/s 725 mm Hg 37%
20:00 +28°C° 0.2 mm 5 m/s 726 mm Hg 45%
21:00 +27°C° 0.2 mm 4 m/s 726 mm Hg 47%
22:00 +27°C° 0.2 mm 4 m/s 726 mm Hg 49%
23:00 +26°C° 0.2 mm 3 m/s 726 mm Hg 52%

Dopodomani, 30 Settembre, Mercoledi

Tempo Temperatura Precipitazioni Vento Pressione Umidità
00:00 +26°C° 0.1 mm 3 m/s 725 mm Hg 52%
01:00 +26°C° 0.1 mm 3 m/s 725 mm Hg 52%
02:00 +25°C° 0.1 mm 2 m/s 725 mm Hg 53%
03:00 +25°C° 0 mm 2 m/s 725 mm Hg 52%
04:00 +25°C° 0 mm 2 m/s 725 mm Hg 51%
05:00 +25°C° 0 mm 2 m/s 725 mm Hg 50%
06:00 +26°C° 0 mm 2 m/s 725 mm Hg 47%
07:00 +27°C° 0 mm 2 m/s 726 mm Hg 44%
08:00 +28°C° 0 mm 2 m/s 726 mm Hg 40%
09:00 +29°C° 0 mm 1 m/s 726 mm Hg 36%
10:00 +31°C° 0 mm 1 m/s 726 mm Hg 31%
11:00 +32°C° 0 mm 1 m/s 726 mm Hg 27%
12:00 +33°C° 0 mm 1 m/s 726 mm Hg 25%
13:00 +34°C° 0 mm 1 m/s 725 mm Hg 23%
14:00 +35°C° 0 mm 1 m/s 725 mm Hg 21%
15:00 +35°C° 0 mm 1 m/s 725 mm Hg 21%
16:00 +35°C° 0 mm 1 m/s 724 mm Hg 21%
17:00 +35°C° 0 mm 1 m/s 724 mm Hg 21%
18:00 +34°C° 0 mm 1 m/s 724 mm Hg 24%
19:00 +32°C° 0 mm 1 m/s 725 mm Hg 28%
20:00 +31°C° 0 mm 1 m/s 725 mm Hg 31%
21:00 +30°C° 0 mm 1 m/s 725 mm Hg 32%
22:00 +29°C° 0 mm 1 m/s 725 mm Hg 34%
23:00 +29°C° 0 mm 1 m/s 725 mm Hg 36%

1 Ottobre, Giovedi

Tempo Temperatura Precipitazioni Vento Pressione Umidità
00:00 +28°C° 0 mm 1 m/s 725 mm Hg 37%
01:00 +28°C° 0 mm 1 m/s 724 mm Hg 37%
02:00 +27°C° 0 mm 2 m/s 724 mm Hg 38%
03:00 +27°C° 0 mm 1 m/s 724 mm Hg 39%
04:00 +26°C° 0 mm 1 m/s 724 mm Hg 41%
05:00 +26°C° 0 mm 1 m/s 724 mm Hg 42%
06:00 +27°C° 0 mm 1 m/s 725 mm Hg 40%
07:00 +28°C° 0 mm 1 m/s 725 mm Hg 37%
08:00 +29°C° 0 mm 1 m/s 726 mm Hg 35%
09:00 +30°C° 0 mm 1 m/s 726 mm Hg 31%
10:00 +32°C° 0 mm 1 m/s 726 mm Hg 28%
11:00 +35°C° 0 mm 2 m/s 726 mm Hg 24%
12:00 +36°C° 0 mm 2 m/s 726 mm Hg 22%
13:00 +37°C° 0 mm 2 m/s 725 mm Hg 20%
14:00 +38°C° 0 mm 2 m/s 725 mm Hg 18%
15:00 +36°C° 0 mm 1 m/s 725 mm Hg 18%
16:00 +36°C° 0 mm 1 m/s 724 mm Hg 17%
17:00 +36°C° 0 mm 1 m/s 724 mm Hg 17%
18:00 +35°C° 0 mm 1 m/s 724 mm Hg 20%
19:00 +33°C° 0 mm 1 m/s 724 mm Hg 22%
20:00 +32°C° 0 mm 1 m/s 725 mm Hg 24%
21:00 +31°C° 0 mm 1 m/s 724 mm Hg 25%
22:00 +30°C° 0 mm 1 m/s 724 mm Hg 26%
23:00 +30°C° 0 mm 1 m/s 724 mm Hg 27%

2 Ottobre, Venerdi

Tempo Temperatura Precipitazioni Vento Pressione Umidità
00:00 +29°C° 0 mm 1 m/s 724 mm Hg 28%
01:00 +28°C° 0 mm 1 m/s 724 mm Hg 29%
02:00 +28°C° 0 mm 1 m/s 723 mm Hg 30%
03:00 +27°C° 0 mm 1 m/s 723 mm Hg 31%
04:00 +27°C° 0 mm 1 m/s 723 mm Hg 31%
05:00 +27°C° 0 mm 1 m/s 723 mm Hg 31%
06:00 +28°C° 0 mm 1 m/s 723 mm Hg 29%
07:00 +29°C° 0 mm 1 m/s 724 mm Hg 27%
08:00 +30°C° 0 mm 1 m/s 724 mm Hg 25%
09:00 +32°C° 0 mm 1 m/s 724 mm Hg 23%
10:00 +33°C° 0 mm 1 m/s 725 mm Hg 21%
11:00 +35°C° 0 mm 1 m/s 725 mm Hg 18%
12:00 +36°C° 0 mm 1 m/s 725 mm Hg 17%
13:00 +36°C° 0 mm 1 m/s 724 mm Hg 15%
14:00 +37°C° 0 mm 1 m/s 724 mm Hg 14%
15:00 +37°C° 0 mm 1 m/s 724 mm Hg 14%
16:00 +37°C° 0 mm 1 m/s 724 mm Hg 15%
17:00 +37°C° 0 mm 1 m/s 724 mm Hg 15%
18:00 +35°C° 0 mm 1 m/s 724 mm Hg 18%
19:00 +33°C° 0 mm 1 m/s 724 mm Hg 20%
20:00 +32°C° 0 mm 1 m/s 725 mm Hg 23%
21:00 +31°C° 0 mm 1 m/s 725 mm Hg 24%
22:00 +30°C° 0 mm 1 m/s 725 mm Hg 25%
23:00 +29°C° 0 mm 1 m/s 725 mm Hg 26%

3 Ottobre, Sabato

Tempo Temperatura Precipitazioni Vento Pressione Umidità
00:00 +29°C° 0 mm 1 m/s 725 mm Hg 27%
01:00 +28°C° 0 mm 1 m/s 725 mm Hg 28%
02:00 +28°C° 0 mm 1 m/s 724 mm Hg 29%
03:00 +27°C° 0 mm 1 m/s 724 mm Hg 30%
04:00 +27°C° 0 mm 1 m/s 724 mm Hg 31%
05:00 +26°C° 0 mm 1 m/s 724 mm Hg 31%
06:00 +27°C° 0 mm 1 m/s 725 mm Hg 29%
07:00 +28°C° 0 mm 1 m/s 725 mm Hg 26%
08:00 +30°C° 0 mm 1 m/s 726 mm Hg 24%
09:00 +31°C° 0 mm 1 m/s 726 mm Hg 21%
10:00 +33°C° 0 mm 1 m/s 726 mm Hg 19%
11:00 +34°C° 0 mm 1 m/s 726 mm Hg 17%
12:00 +35°C° 0 mm 1 m/s 726 mm Hg 15%
13:00 +36°C° 0 mm 1 m/s 726 mm Hg 14%
14:00 +37°C° 0 mm 1 m/s 726 mm Hg 13%
15:00 +37°C° 0 mm 1 m/s 726 mm Hg 13%
16:00 +37°C° 0 mm 1 m/s 726 mm Hg 14%
17:00 +36°C° 0 mm 1 m/s 725 mm Hg 15%
18:00 +35°C° 0 mm 1 m/s 726 mm Hg 17%
19:00 +33°C° 0 mm 1 m/s 726 mm Hg 20%
20:00 +31°C° 0 mm 1 m/s 726 mm Hg 23%
21:00 +31°C° 0 mm 1 m/s 726 mm Hg 24%
22:00 +30°C° 0 mm 1 m/s 726 mm Hg 25%
23:00 +29°C° 0 mm 1 m/s 726 mm Hg 26%
Mostrare altro